Time,TemperatureF,DewpointF,PressureIn,WindDirection,WindDirectionDegrees,WindSpeedMPH,WindSpeedGustMPH,Humidity,HourlyPrecipIn,Conditions,Clouds,dailyrainin,SoftwareType,DateUTC
2013-05-12 00:02:00,32.0,19.0,-100.00,North,355,0.0,1.0,58,0.00,,,0.00,,2013-05-12 05:02:00,
2013-05-12 00:11:00,31.0,19.0,-100.00,NNW,340,0.0,1.0,60,0.00,,,0.00,,2013-05-12 05:11:00,
2013-05-12 00:22:00,30.0,18.0,-100.00,NW,325,0.0,2.0,61,0.00,,,0.00,,2013-05-12 05:22:00,
2013-05-12 00:32:00,29.0,19.0,-100.00,North,355,0.0,1.0,63,0.00,,,0.00,,2013-05-12 05:32:00,
2013-05-12 00:42:00,29.0,19.0,-100.00,NW,305,1.0,1.0,65,0.00,,,0.00,,2013-05-12 05:42:00,
2013-05-12 00:51:00,28.0,19.0,-100.00,NW,315,1.0,2.0,67,0.00,,,0.00,,2013-05-12 05:51:00,
2013-05-12 01:01:00,28.0,19.0,-100.00,WNW,290,0.0,1.0,68,0.00,,,0.00,,2013-05-12 06:01:00,
2013-05-12 01:11:00,28.0,19.0,-100.00,WNW,295,1.0,1.0,69,0.00,,,0.00,,2013-05-12 06:11:00,
2013-05-12 01:21:00,29.0,19.0,-100.00,WNW,290,1.0,2.0,70,0.00,,,0.00,,2013-05-12 06:21:00,
2013-05-12 01:32:00,27.0,19.0,-100.00,WNW,290,1.0,2.0,71,0.00,,,0.00,,2013-05-12 06:32:00,
2013-05-12 01:42:00,28.0,19.0,-100.00,WNW,300,0.0,1.0,73,0.00,,,0.00,,2013-05-12 06:42:00,
2013-05-12 01:51:00,28.0,19.0,-100.00,West,270,1.0,1.0,73,0.00,,,0.00,,2013-05-12 06:51:00,
2013-05-12 02:01:00,27.0,19.0,-100.00,WNW,290,1.0,2.0,74,0.00,,,0.00,,2013-05-12 07:01:00,
2013-05-12 02:11:00,27.0,19.0,-100.00,WNW,290,2.0,2.0,75,0.00,,,0.00,,2013-05-12 07:11:00,
2013-05-12 02:21:00,26.0,19.0,-100.00,West,275,1.0,1.0,76,0.00,,,0.00,,2013-05-12 07:21:00,
2013-05-12 02:32:00,26.0,19.0,-100.00,WNW,295,1.0,2.0,77,0.00,,,0.00,,2013-05-12 07:32:00,
2013-05-12 02:42:00,26.0,19.0,-100.00,NNW,340,1.0,2.0,78,0.00,,,0.00,,2013-05-12 07:42:00,
2013-05-12 02:52:00,25.0,19.0,-100.00,WNW,290,2.0,3.0,79,0.00,,,0.00,,2013-05-12 07:52:00,
2013-05-12 03:02:00,24.0,19.0,-100.00,WNW,300,2.0,4.0,80,0.00,,,0.00,,2013-05-12 08:02:00,
2013-05-12 03:11:00,25.0,19.0,-100.00,NW,305,2.0,3.0,81,0.00,,,0.00,,2013-05-12 08:11:00,
2013-05-12 03:21:00,25.0,19.0,-100.00,WNW,300,1.0,2.0,81,0.00,,,0.00,,2013-05-12 08:21:00,
2013-05-12 03:32:00,25.0,19.0,-100.00,NW,310,1.0,3.0,81,0.00,,,0.00,,2013-05-12 08:32:00,
2013-05-12 03:41:00,23.0,19.0,-100.00,NW,325,1.0,1.0,82,0.00,,,0.00,,2013-05-12 08:41:00,
2013-05-12 03:52:00,23.0,19.0,-100.00,NW,305,1.0,1.0,83,0.00,,,0.00,,2013-05-12 08:52:00,
2013-05-12 04:01:00,23.0,19.0,-100.00,WNW,300,1.0,2.0,85,0.00,,,0.00,,2013-05-12 09:01:00,
2013-05-12 04:11:00,25.0,21.0,-100.00,WNW,295,2.0,2.0,85,0.00,,,0.00,,2013-05-12 09:11:00,
2013-05-12 04:21:00,26.0,21.0,-100.00,WNW,300,2.0,3.0,81,0.00,,,0.00,,2013-05-12 09:21:00,
2013-05-12 04:33:00,26.0,21.0,-100.00,NNW,335,1.0,2.0,80,0.00,,,0.00,,2013-05-12 09:33:00,
2013-05-12 04:42:00,25.0,19.0,-100.00,NW,320,1.0,2.0,80,0.00,,,0.00,,2013-05-12 09:42:00,
2013-05-12 04:52:00,25.0,19.0,-100.00,NW,305,0.0,2.0,80,0.00,,,0.00,,2013-05-12 09:52:00,
2013-05-12 05:03:00,24.0,19.0,-100.00,NW,310,0.0,1.0,81,0.00,,,0.00,,2013-05-12 10:03:00,
2013-05-12 05:12:00,23.0,19.0,-100.00,NW,320,1.0,1.0,83,0.00,,,0.00,,2013-05-12 10:12:00,
2013-05-12 05:22:00,24.0,19.0,-100.00,WNW,300,2.0,3.0,83,0.00,,,0.00,,2013-05-12 10:22:00,
2013-05-12 05:33:00,25.0,21.0,-100.00,NW,310,2.0,4.0,83,0.00,,,0.00,,2013-05-12 10:33:00,
2013-05-12 05:42:00,25.0,21.0,-100.00,NW,305,2.0,4.0,82,0.00,,,0.00,,2013-05-12 10:42:00,
2013-05-12 05:52:00,25.0,19.0,-100.00,NNW,340,1.0,3.0,82,0.00,,,0.00,,2013-05-12 10:52:00,
2013-05-12 06:02:00,24.0,19.0,-100.00,NNW,335,1.0,2.0,82,0.00,,,0.00,,2013-05-12 11:02:00,
2013-05-12 06:12:00,24.0,19.0,-100.00,NNW,345,1.0,2.0,82,0.00,,,0.00,,2013-05-12 11:12:00,
2013-05-12 06:21:00,24.0,19.0,-100.00,NW,320,1.0,3.0,83,0.00,,,0.00,,2013-05-12 11:21:00,
2013-05-12 06:32:00,25.0,19.0,-100.00,NW,320,2.0,4.0,83,0.00,,,0.00,,2013-05-12 11:32:00,
2013-05-12 06:42:00,26.0,21.0,-100.00,NW,315,2.0,4.0,82,0.00,,,0.00,,2013-05-12 11:42:00,
2013-05-12 06:51:00,27.0,21.0,-100.00,NNW,340,1.0,3.0,80,0.00,,,0.00,,2013-05-12 11:51:00,
2013-05-12 07:01:00,29.0,23.0,-100.00,NW,325,2.0,4.0,77,0.00,,,0.00,,2013-05-12 12:01:00,
2013-05-12 07:11:00,30.0,23.0,-100.00,NW,320,2.0,4.0,75,0.00,,,0.00,,2013-05-12 12:11:00,
2013-05-12 07:21:00,31.0,23.0,-100.00,NNW,330,1.0,2.0,73,0.00,,,0.00,,2013-05-12 12:21:00,
2013-05-12 07:32:00,32.0,23.0,-100.00,WNW,300,2.0,3.0,70,0.00,,,0.00,,2013-05-12 12:32:00,
2013-05-12 07:41:00,33.0,25.0,-100.00,NW,305,1.0,3.0,69,0.00,,,0.00,,2013-05-12 12:41:00,
2013-05-12 07:51:00,35.0,25.0,-100.00,NNW,330,1.0,4.0,66,0.00,,,0.00,,2013-05-12 12:51:00,
2013-05-12 08:01:00,34.0,23.0,-100.00,North,0,4.0,5.0,64,0.00,,,0.00,,2013-05-12 13:01:00,
2013-05-12 08:11:00,35.0,23.0,-100.00,North,0,3.0,5.0,61,0.00,,,0.00,,2013-05-12 13:11:00,
2013-05-12 08:21:00,36.0,23.0,-100.00,North,10,2.0,6.0,58,0.00,,,0.00,,2013-05-12 13:21:00,
2013-05-12 08:32:00,37.0,23.0,-100.00,North,0,2.0,5.0,55,0.00,,,0.00,,2013-05-12 13:32:00,
2013-05-12 08:41:00,38.0,23.0,-100.00,North,0,2.0,4.0,53,0.00,,,0.00,,2013-05-12 13:41:00,
2013-05-12 08:52:00,39.0,23.0,-100.00,West,265,1.0,6.0,51,0.00,,,0.00,,2013-05-12 13:52:00,
2013-05-12 09:01:00,39.0,21.0,-100.00,NNW,330,2.0,6.0,49,0.00,,,0.00,,2013-05-12 14:01:00,
2013-05-12 09:11:00,40.0,21.0,-100.00,North,10,2.0,6.0,49,0.00,,,0.00,,2013-05-12 14:11:00,
2013-05-12 09:21:00,41.0,23.0,-100.00,West,280,4.0,7.0,48,0.00,,,0.00,,2013-05-12 14:21:00,
2013-05-12 09:31:00,42.0,23.0,-100.00,NW,305,3.0,10.0,46,0.00,,,0.00,,2013-05-12 14:31:00,
2013-05-12 09:42:00,41.0,21.0,-100.00,North,0,6.0,9.0,45,0.00,,,0.00,,2013-05-12 14:42:00,
2013-05-12 09:52:00,42.0,21.0,-100.00,NW,305,6.0,10.0,44,0.00,,,0.00,,2013-05-12 14:52:00,
2013-05-12 10:01:00,42.0,23.0,-100.00,West,260,4.0,7.0,44,0.00,,,0.00,,2013-05-12 15:01:00,
2013-05-12 10:11:00,43.0,21.0,-100.00,NNW,335,4.0,12.0,42,0.00,,,0.00,,2013-05-12 15:11:00,
2013-05-12 10:21:00,43.0,21.0,-100.00,WSW,250,6.0,12.0,41,0.00,,,0.00,,2013-05-12 15:21:00,
2013-05-12 10:34:00,43.0,21.0,-100.00,WSW,245,6.0,11.0,39,0.00,,,0.00,,2013-05-12 15:34:00,
2013-05-12 10:42:00,45.0,21.0,-100.00,WNW,290,4.0,12.0,37,0.00,,,0.00,,2013-05-12 15:42:00,
2013-05-12 10:52:00,44.0,19.0,-100.00,WSW,255,6.0,10.0,36,0.00,,,0.00,,2013-05-12 15:52:00,
2013-05-12 11:02:00,43.0,18.0,-100.00,North,0,9.0,14.0,35,0.00,,,0.00,,2013-05-12 16:02:00,
2013-05-12 11:12:00,45.0,19.0,-100.00,NW,325,4.0,14.0,35,0.00,,,0.00,,2013-05-12 16:12:00,
2013-05-12 11:23:00,46.0,18.0,-100.00,WNW,300,4.0,12.0,32,0.00,,,0.00,,2013-05-12 16:23:00,
2013-05-12 11:33:00,47.0,18.0,-100.00,North,355,7.0,10.0,30,0.00,,,0.00,,2013-05-12 16:33:00,
2013-05-12 11:42:00,48.0,18.0,-100.00,West,280,7.0,12.0,30,0.00,,,0.00,,2013-05-12 16:42:00,
2013-05-12 11:52:00,48.0,18.0,-100.00,WNW,285,7.0,12.0,29,0.00,,,0.00,,2013-05-12 16:52:00,
2013-05-12 12:02:00,48.0,18.0,-100.00,West,275,6.0,13.0,29,0.00,,,0.00,,2013-05-12 17:02:00,
2013-05-12 12:11:00,48.0,18.0,-100.00,WNW,295,11.0,19.0,28,0.00,,,0.00,,2013-05-12 17:11:00,
2013-05-12 12:22:00,50.0,18.0,-100.00,West,260,9.0,13.0,28,0.00,,,0.00,,2013-05-12 17:22:00,
2013-05-12 12:32:00,50.0,18.0,-100.00,West,275,8.0,15.0,27,0.00,,,0.00,,2013-05-12 17:32:00,
2013-05-12 12:42:00,50.0,18.0,-100.00,WSW,240,9.0,14.0,27,0.00,,,0.00,,2013-05-12 17:42:00,
2013-05-12 12:52:00,50.0,18.0,-100.00,NW,305,5.0,19.0,27,0.00,,,0.00,,2013-05-12 17:52:00,
2013-05-12 13:01:00,50.0,18.0,-100.00,North,10,9.0,21.0,26,0.00,,,0.00,,2013-05-12 18:01:00,
2013-05-12 13:12:00,50.0,18.0,-100.00,West,270,9.0,16.0,26,0.00,,,0.00,,2013-05-12 18:12:00,
2013-05-12 13:22:00,51.0,18.0,-100.00,West,275,10.0,14.0,25,0.00,,,0.00,,2013-05-12 18:22:00,
2013-05-12 13:32:00,51.0,16.0,-100.00,NW,315,6.0,20.0,25,0.00,,,0.00,,2013-05-12 18:32:00,
2013-05-12 13:41:00,53.0,18.0,-100.00,WNW,285,9.0,14.0,24,0.00,,,0.00,,2013-05-12 18:41:00,
2013-05-12 13:51:00,53.0,18.0,-100.00,WNW,300,11.0,19.0,24,0.00,,,0.00,,2013-05-12 18:51:00,
2013-05-12 14:01:00,52.0,16.0,-100.00,WNW,300,7.0,12.0,24,0.00,,,0.00,,2013-05-12 19:01:00,
2013-05-12 14:11:00,54.0,18.0,-100.00,West,280,11.0,17.0,24,0.00,,,0.00,,2013-05-12 19:11:00,
2013-05-12 14:21:00,52.0,16.0,-100.00,North,5,6.0,14.0,23,0.00,,,0.00,,2013-05-12 19:21:00,
2013-05-12 14:32:00,54.0,18.0,-100.00,WNW,295,10.0,16.0,23,0.00,,,0.00,,2013-05-12 19:32:00,
2013-05-12 14:42:00,54.0,16.0,-100.00,NW,310,9.0,22.0,23,0.00,,,0.00,,2013-05-12 19:42:00,
2013-05-12 14:52:00,55.0,18.0,-100.00,West,275,11.0,18.0,23,0.00,,,0.00,,2013-05-12 19:52:00,
2013-05-12 15:02:00,56.0,18.0,-100.00,West,265,12.0,18.0,23,0.00,,,0.00,,2013-05-12 20:02:00,
2013-05-12 15:11:00,55.0,18.0,-100.00,West,265,7.0,18.0,23,0.00,,,0.00,,2013-05-12 20:11:00,
2013-05-12 15:21:00,56.0,18.0,-100.00,West,270,13.0,21.0,22,0.00,,,0.00,,2013-05-12 20:21:00,
2013-05-12 15:32:00,56.0,19.0,-100.00,West,275,7.0,19.0,22,0.00,,,0.00,,2013-05-12 20:32:00,
2013-05-12 15:42:00,56.0,19.0,-100.00,West,275,12.0,17.0,22,0.00,,,0.00,,2013-05-12 20:42:00,
2013-05-12 15:51:00,56.0,19.0,-100.00,West,260,7.0,19.0,22,0.00,,,0.00,,2013-05-12 20:51:00,
2013-05-12 16:01:00,56.0,19.0,-100.00,WNW,290,9.0,14.0,22,0.00,,,0.00,,2013-05-12 21:01:00,
2013-05-12 16:11:00,56.0,18.0,-100.00,NW,315,9.0,16.0,22,0.00,,,0.00,,2013-05-12 21:11:00,
2013-05-12 16:21:00,56.0,19.0,-100.00,WNW,295,10.0,15.0,22,0.00,,,0.00,,2013-05-12 21:21:00,
2013-05-12 16:33:00,57.0,19.0,-100.00,West,275,8.0,17.0,22,0.00,,,0.00,,2013-05-12 21:33:00,
2013-05-12 16:42:00,56.0,19.0,-100.00,NNW,335,4.0,16.0,22,0.00,,,0.00,,2013-05-12 21:42:00,
2013-05-12 16:52:00,57.0,19.0,-100.00,West,265,9.0,16.0,22,0.00,,,0.00,,2013-05-12 21:52:00,
2013-05-12 17:02:00,56.0,19.0,-100.00,NW,305,9.0,16.0,22,0.00,,,0.00,,2013-05-12 22:02:00,
2013-05-12 17:12:00,56.0,18.0,-100.00,NW,305,5.0,16.0,22,0.00,,,0.00,,2013-05-12 22:12:00,
2013-05-12 17:23:00,56.0,19.0,-100.00,NW,325,6.0,15.0,22,0.00,,,0.00,,2013-05-12 22:23:00,
2013-05-12 17:33:00,57.0,19.0,-100.00,West,265,11.0,19.0,23,0.00,,,0.00,,2013-05-12 22:33:00,
2013-05-12 17:42:00,58.0,19.0,-100.00,WNW,290,7.0,14.0,22,0.00,,,0.00,,2013-05-12 22:42:00,
2013-05-12 17:52:00,58.0,19.0,-100.00,NW,320,7.0,16.0,22,0.00,,,0.00,,2013-05-12 22:52:00,
2013-05-12 18:02:00,56.0,19.0,-100.00,West,280,5.0,13.0,23,0.00,,,0.00,,2013-05-12 23:02:00,
2013-05-12 18:12:00,56.0,19.0,-100.00,WNW,295,11.0,14.0,23,0.00,,,0.00,,2013-05-12 23:12:00,
2013-05-12 18:22:00,56.0,19.0,-100.00,West,280,7.0,12.0,23,0.00,,,0.00,,2013-05-12 23:22:00,
2013-05-12 18:32:00,57.0,19.0,-100.00,WNW,285,4.0,11.0,23,0.00,,,0.00,,2013-05-12 23:32:00,
2013-05-12 18:42:00,56.0,19.0,-100.00,North,0,4.0,12.0,24,0.00,,,0.00,,2013-05-12 23:42:00,
2013-05-12 18:52:00,55.0,19.0,-100.00,WNW,290,7.0,11.0,24,0.00,,,0.00,,2013-05-12 23:52:00,
2013-05-12 19:01:00,55.0,19.0,-100.00,WNW,295,5.0,10.0,24,0.00,,,0.00,,2013-05-13 00:01:00,
2013-05-12 19:11:00,54.0,19.0,-100.00,NW,315,6.0,11.0,24,0.00,,,0.00,,2013-05-13 00:11:00,
2013-05-12 19:21:00,54.0,18.0,-100.00,NW,305,3.0,7.0,24,0.00,,,0.00,,2013-05-13 00:21:00,
2013-05-12 19:32:00,54.0,19.0,-100.00,WNW,295,7.0,12.0,24,0.00,,,0.00,,2013-05-13 00:32:00,
2013-05-12 19:41:00,53.0,19.0,-100.00,WNW,300,4.0,10.0,25,0.00,,,0.00,,2013-05-13 00:41:00,
2013-05-12 19:51:00,53.0,18.0,-100.00,NW,310,5.0,7.0,25,0.00,,,0.00,,2013-05-13 00:51:00,
2013-05-12 20:01:00,52.0,18.0,-100.00,NW,310,2.0,7.0,26,0.00,,,0.00,,2013-05-13 01:01:00,
2013-05-12 20:11:00,50.0,18.0,-100.00,North,350,1.0,2.0,27,0.00,,,0.00,,2013-05-13 01:11:00,
2013-05-12 20:22:00,49.0,18.0,-100.00,NE,35,1.0,3.0,29,0.00,,,0.00,,2013-05-13 01:22:00,
2013-05-12 20:31:00,48.0,19.0,-100.00,NNE,15,1.0,2.0,30,0.00,,,0.00,,2013-05-13 01:31:00,
2013-05-12 20:41:00,48.0,19.0,-100.00,NE,45,4.0,6.0,31,0.00,,,0.00,,2013-05-13 01:41:00,
2013-05-12 20:52:00,47.0,19.0,-100.00,NNE,30,3.0,5.0,31,0.00,,,0.00,,2013-05-13 01:52:00,
2013-05-12 21:01:00,47.0,19.0,-100.00,NNE,30,3.0,4.0,32,0.00,,,0.00,,2013-05-13 02:01:00,
2013-05-12 21:11:00,46.0,19.0,-100.00,NE,35,3.0,4.0,33,0.00,,,0.00,,2013-05-13 02:11:00,
2013-05-12 21:21:00,45.0,19.0,-100.00,NE,55,4.0,6.0,34,0.00,,,0.00,,2013-05-13 02:21:00,
2013-05-12 21:31:00,45.0,19.0,-100.00,ENE,65,4.0,5.0,35,0.00,,,0.00,,2013-05-13 02:31:00,
2013-05-12 21:41:00,44.0,19.0,-100.00,ENE,70,3.0,4.0,35,0.00,,,0.00,,2013-05-13 02:41:00,
2013-05-12 21:51:00,44.0,19.0,-100.00,East,80,3.0,4.0,36,0.00,,,0.00,,2013-05-13 02:51:00,
2013-05-12 22:02:00,43.0,19.0,-100.00,ENE,70,3.0,4.0,37,0.00,,,0.00,,2013-05-13 03:02:00,
2013-05-12 22:11:00,43.0,19.0,-100.00,ENE,70,2.0,4.0,38,0.00,,,0.00,,2013-05-13 03:11:00,
2013-05-12 22:21:00,42.0,19.0,-100.00,ENE,70,3.0,4.0,39,0.00,,,0.00,,2013-05-13 03:21:00,
2013-05-12 22:32:00,41.0,19.0,-100.00,ENE,65,1.0,4.0,41,0.00,,,0.00,,2013-05-13 03:32:00,
2013-05-12 22:42:00,40.0,19.0,-100.00,ENE,70,2.0,3.0,43,0.00,,,0.00,,2013-05-13 03:42:00,
2013-05-12 22:52:00,39.0,19.0,-100.00,ENE,60,3.0,4.0,45,0.00,,,0.00,,2013-05-13 03:52:00,
2013-05-12 23:02:00,39.0,19.0,-100.00,ENE,65,3.0,4.0,47,0.00,,,0.00,,2013-05-13 04:02:00,
2013-05-12 23:12:00,38.0,21.0,-100.00,ENE,65,2.0,4.0,49,0.00,,,0.00,,2013-05-13 04:12:00,
2013-05-12 23:23:00,35.0,21.0,-100.00,East,90,2.0,3.0,56,0.00,,,0.00,,2013-05-13 04:23:00,
2013-05-12 23:32:00,35.0,21.0,-100.00,ESE,105,2.0,3.0,57,0.00,,,0.00,,2013-05-13 04:32:00,
2013-05-12 23:41:00,36.0,23.0,-100.00,ENE,75,3.0,4.0,57,0.00,,,0.00,,2013-05-13 04:41:00,
2013-05-12 23:52:00,35.0,23.0,-100.00,East,90,4.0,4.0,60,0.00,,,0.00,,2013-05-13 04:52:00,